User: anonymous   Login
Location: Caltech
(34.1382°N, 118.1253°W)
Time: 01:54:04
(UTC-08:00)
Language:

Iridium 68 - Orbit

View from above orbital plane
View from above orbital plane
View from above satellite
View from above satellite

Ground track
Ground track

The orbit data is extracted from the following two-line orbital elements,

1 25291U 98021G   17058.57552428 -.00000033  00000-0 -18794-4 0  9999
2 25291  86.3927 269.8216 0001908  83.5490 276.5923 14.34218330989286
Epoch (UTC): 27 February 2017 13:48:45
Eccentricity: 0.0001908
inclination: 86.3927°
perigee height: 776 km
apogee height: 779 km
right ascension of ascending node: 269.8216°
argument of perigee: 83.5490°
revolutions per day: 14.34218330
mean anomaly at epoch: 276.5923°
orbit number at epoch: 98928

The dashed part of the orbit path shows where the satellite is in the earth's shadow,  

DLR